Stuart, FL

7:59 PM EDT on August 29, 2016 (GMT -0400)
Witham

Weather History for KSUA - October, 2013

Change the Weather History Date:

Saturday, October 5, 2013

  Actual Average Record
Temperature  
Mean Temperature 78 °F -  
Max Temperature 86 °F 86 °F 95 °F (1951)
Min Temperature 71 °F 72 °F 62 °F (2014)
Cooling Degree Days 14    
Growing Degree Days 28 (Base 50)    
Moisture  
Dew Point 68 °F    
Average Humidity 71    
Maximum Humidity 88    
Minimum Humidity 48    
Precipitation  
Precipitation 0.00 in - - ()
Sea Level Pressure  
Sea Level Pressure 30.02 in    
Wind  
Wind Speed 5 mph (ENE)    
Max Wind Speed 12 mph    
Max Gust Speed 16 mph    
Visibility 9 miles    
Events      
Averages and records for this station are not official NWS values.
T = Trace of Precipitation, MM = Missing Value Source: NWS Daily Summary

Daily Weather History Graph

Daily Weather History Graph

Search for Another Location

Airport or City:

Trip Planner

Search our weather history database for the weather conditions in past years. The results will help you decide how hot, cold, wet, or windy it might be!

Date:

Astronomy

Oct. 05, 2013 Rise Set
Actual Time 7:15 AM EDT 7:02 PM EDT
Civil Twilight 6:52 AM EDT 7:25 PM EDT
Nautical Twilight 6:25 AM EDT 7:52 PM EDT
Astronomical Twilight 5:58 AM EDT 8:19 PM EDT
Moon 7:46 AM EDT (10/5) 7:29 PM EDT (10/5)
Length of Visible Light 12h 33m
Length of Day
11h 46m
New Moon, 0% of the Moon is Illuminated
Oct 5
New Moon
Oct 11
First Quarter
Oct 18
Full
Oct 26
Last Quarter
Nov 3
New

Hourly Weather History & Observations

Time (EDT) Temp. Heat Index Dew Point Humidity Pressure Visibility Wind Dir Wind Speed Gust Speed Precip Events Conditions
12:15 AM 78.8 °F - 66.2 °F 65% 30.06 in 10.0 mi ENE 5.8 mph - N/A   Scattered Clouds
12:35 AM 80.6 °F 83.2 °F 68.0 °F 65% 30.06 in 10.0 mi East 8.1 mph - N/A   Mostly Cloudy
12:55 AM 78.8 °F - 66.2 °F 65% 30.05 in 10.0 mi East 4.6 mph - N/A   Scattered Clouds
1:15 AM 77.0 °F - 68.0 °F 74% 30.05 in 10.0 mi ENE 3.5 mph - N/A   Clear
1:35 AM 77.0 °F - 68.0 °F 74% 30.05 in 10.0 mi Calm Calm - N/A   Scattered Clouds
1:55 AM 77.0 °F - 68.0 °F 74% 30.04 in 10.0 mi ENE 3.5 mph - N/A   Scattered Clouds
2:15 AM 77.0 °F - 68.0 °F 74% 30.04 in 10.0 mi Calm Calm - N/A   Clear
2:35 AM 75.2 °F - 68.0 °F 78% 30.03 in 10.0 mi Calm Calm - N/A   Clear
2:55 AM 77.0 °F - 68.0 °F 74% 30.02 in 10.0 mi Calm Calm - N/A   Clear
3:15 AM 73.4 °F - 68.0 °F 83% 30.02 in 10.0 mi West 3.5 mph - N/A   Clear
3:35 AM 75.2 °F - 68.0 °F 78% 30.02 in 10.0 mi Calm Calm - N/A   Clear
3:55 AM 73.4 °F - 68.0 °F 83% 30.01 in 10.0 mi Calm Calm - N/A   Clear
4:15 AM 73.4 °F - 68.0 °F 83% 30.01 in 10.0 mi Calm Calm - N/A   Clear
4:35 AM 73.4 °F - 68.0 °F 83% 30.01 in 10.0 mi Calm Calm - N/A   Clear
4:55 AM 71.6 °F - 68.0 °F 88% 30.01 in 10.0 mi Calm Calm - N/A   Clear
5:15 AM 71.6 °F - 68.0 °F 88% 30.01 in 10.0 mi West 3.5 mph - N/A   Clear
5:35 AM 73.4 °F - 68.0 °F 83% 30.01 in 10.0 mi Calm Calm - N/A   Clear
5:55 AM 71.6 °F - 68.0 °F 88% 30.02 in 10.0 mi West 3.5 mph - N/A   Clear
6:15 AM 73.4 °F - 68.0 °F 83% 30.02 in 10.0 mi West 3.5 mph - N/A   Scattered Clouds
6:47 AM 73.4 °F - 68.0 °F 83% 30.02 in 7.0 mi Calm Calm - N/A   Mostly Cloudy
7:47 AM 73.4 °F - 69.8 °F 88% 30.03 in 7.0 mi Calm Calm - N/A   Mostly Cloudy
8:47 AM 77.0 °F - 71.6 °F 83% 30.03 in 7.0 mi Calm Calm - N/A   Mostly Cloudy
9:47 AM 82.4 °F 87.2 °F 71.6 °F 70% 30.04 in 7.0 mi East 9.2 mph - N/A   Mostly Cloudy
10:47 AM 84.2 °F 88.4 °F 69.8 °F 62% 30.05 in 7.0 mi East 9.2 mph - N/A   Mostly Cloudy
11:47 AM 84.2 °F 88.4 °F 69.8 °F 62% 30.05 in 7.0 mi East 10.4 mph - N/A   Mostly Cloudy
12:47 PM 86.0 °F 89.4 °F 68.0 °F 55% 30.04 in 7.0 mi ENE 11.5 mph - N/A   Mostly Cloudy
1:47 PM 86.0 °F 89.4 °F 68.0 °F 55% 30.02 in 7.0 mi East 10.4 mph 16.1 mph N/A   Mostly Cloudy
2:47 PM 86.0 °F 87.3 °F 64.4 °F 48% 29.99 in 7.0 mi East 11.5 mph - N/A   Scattered Clouds
3:47 PM 86.0 °F 88.2 °F 66.2 °F 51% 29.98 in 7.0 mi ENE 9.2 mph - N/A   Scattered Clouds
4:47 PM 84.2 °F 86.6 °F 66.2 °F 55% 29.98 in 7.0 mi ENE 8.1 mph - N/A   Scattered Clouds
5:55 PM 84.2 °F 85.0 °F 62.6 °F 48% 29.97 in 7.0 mi ENE 8.1 mph - N/A   Mostly Cloudy
6:47 PM 82.4 °F 85.4 °F 68.0 °F 62% 29.98 in 10.0 mi NE 8.1 mph - N/A   Mostly Cloudy
8:15 PM 80.6 °F 83.2 °F 68.0 °F 65% 29.98 in 10.0 mi NE 6.9 mph - N/A   Scattered Clouds
8:35 PM 80.6 °F 83.9 °F 69.8 °F 70% 29.99 in 10.0 mi ENE 9.2 mph - N/A   Scattered Clouds
8:55 PM 80.6 °F 83.9 °F 69.8 °F 70% 29.99 in 10.0 mi East 8.1 mph - N/A   Clear
9:15 PM 80.6 °F 83.9 °F 69.8 °F 70% 29.99 in 10.0 mi ENE 6.9 mph - N/A   Clear
9:35 PM 80.6 °F 83.9 °F 69.8 °F 70% 29.99 in 10.0 mi East 9.2 mph - N/A   Clear
9:55 PM 80.6 °F 83.9 °F 69.8 °F 70% 30.00 in 10.0 mi ENE 8.1 mph - N/A   Scattered Clouds
10:15 PM 80.6 °F 83.9 °F 69.8 °F 70% 30.00 in 10.0 mi East 10.4 mph - N/A   Scattered Clouds
10:35 PM 80.6 °F 83.9 °F 69.8 °F 70% 30.00 in 10.0 mi East 8.1 mph - N/A   Scattered Clouds
10:55 PM 80.6 °F 83.9 °F 69.8 °F 70% 30.00 in 10.0 mi East 9.2 mph - N/A   Scattered Clouds
11:15 PM 80.6 °F 83.9 °F 69.8 °F 70% 30.00 in 10.0 mi East 8.1 mph - N/A   Clear
11:35 PM 80.6 °F 83.9 °F 69.8 °F 70% 30.00 in 10.0 mi East 6.9 mph - N/A   Scattered Clouds
11:55 PM 80.6 °F 83.9 °F 69.8 °F 70% 30.00 in 10.0 mi East 6.9 mph - N/A   Clear